[[{"header":{"parameterUnit":"m.s-1","parameterCategory":2,"la1":30.2991,"la2":30.254,"lo1":-89.0895,"lo2":-89.0444,"dy":0.0017,"dx":0.0017,"nx":28,"ny":28,"refTime":"2024-02-08T09:00:00:Z","depth":"0","parameterNumber":2,"parameterNumberName":"U-component_of_CURRENTS"},"data":[0,0,0,0,0,0,0,0,0,0,0,0,0,0,0,0,0,0,0,0,0,0,0,0,0,0,0,0,0,0,0,0,0,0,0,0,0,0,0,0,0,0,0,0,0,0,0,0,0,0,0,0,0,0,0,0,0,0,0.0991,0.0991,0,0.0989,0.0989,0.0989,0.0992,0.0992,0.0992,0.0992,0.0982,0.0982,0.0982,0,0,0,0,0,0,0,0,0,0,0,0,0,0.1028,0.1027,0.0991,0.0991,0.0991,0.0989,0.0989,0.0989,0.0992,0.0992,0.0992,0.0992,0.0983,0.0982,0.0982,0,0,0,0,0,0,0,0,0,0,0,0,0,0.1018,0.1027,0.0991,0.0992,0.0992,0.0989,0.0989,0.0989,0.0992,0.0992,0.0992,0.0992,0.0983,0.0982,0.0982,0.0976,0,0,0.098,0.098,0,0,0,0,0,0,0,0,0.1019,0.1017,0.0992,0.0992,0.0992,0.0991,0.0999,0.0984,0.0992,0.0992,0.0992,0.0992,0.0984,0.0984,0.0983,0.0976,0.0976,0.098,0.098,0.098,0.0979,0,0,0,0,0,0,0,0.1019,0.1017,0.099,0.0992,0.0992,0.1003,0.1002,0.0996,0.0988,0.0992,0.0992,0.0992,0.0984,0.0984,0.0983,0.0975,0.098,0.098,0.0979,0.0979,0.0987,0.0988,0,0,0,0,0,0,0.1017,0.1017,0.099,0.099,0.1005,0.1002,0.1001,0.0991,0.0988,0.0987,0.0992,0.0992,0.0985,0.0984,0.0983,0.1012,0.098,0.0979,0.0979,0.0987,0.0987,0.0988,0,0,0,0,0,0,0.1018,0.1014,0.099,0.1004,0.1002,0.1001,0.0991,0.0991,0.0991,0.0987,0.0987,0.0992,0.0985,0.0984,0.0983,0.101,0.0979,0.0978,0.0986,0.0987,0.0988,0.1048,0,0,0,0,0,0,0.1019,0.1014,0.1009,0.1004,0.1001,0.0986,0.0991,0.0991,0.099,0.0991,0.0987,0.0986,0.0985,0.0984,0.0983,0.1009,0.0978,0.0985,0.0986,0.0987,0.1045,0.105,0.1055,0,0,0,0,0,0.102,0.1008,0.1009,0.1006,0.0993,0.0986,0.0985,0.0986,0.099,0.0987,0.0991,0.0987,0.0989,0.0984,0.0982,0.1009,0.0985,0.0986,0.0987,0.1043,0.1049,0.1055,0,0,0,0,0,0,0.102,0.1007,0.1008,0.0992,0.0989,0.0986,0.0983,0.0986,0.0987,0.0989,0.0988,0.0987,0.1,0.0989,0.0983,0.1013,0.0988,0.0989,0.1031,0.1037,0.1042,0.1068,0.0978,0,0,0,0,0,0.1018,0.1006,0.1,0.0988,0.0986,0.0986,0.0985,0.0986,0.0985,0.0986,0.0986,0.099,0.1003,0.1006,0.1006,0.1017,0.1056,0.1034,0.1039,0.1043,0.1063,0.1145,0.116,0.0992,0.0992,0.0992,0,0,0.1016,0.1007,0.1001,0.0988,0.0986,0.0993,0.0985,0.0981,0.0998,0.0984,0.1003,0.1003,0.1007,0.1027,0.1032,0.1023,0.1113,0.1045,0.1049,0.1066,0.1148,0.1165,0.118,0.0992,0.0992,0.0992,0,0,0.1013,0.0996,0.0994,0.0993,0.099,0.0991,0.0991,0.099,0.1,0.1012,0.1017,0.1038,0.1036,0.1063,0.1074,0.1103,0.1133,0.1094,0.1147,0.1227,0.1242,0.1257,0.134,0.1361,0.1101,0.1101,0.1101,0,0.1014,0.1009,0.0992,0.0997,0.1006,0.0993,0.1008,0.1014,0.1017,0.1045,0.1022,0.1073,0.1065,0.1129,0.1137,0.112,0.1169,0.1127,0.1238,0.1252,0.1266,0.1347,0.137,0.1104,0.1103,0.1103,0.1103,0,0.1018,0.1019,0.1016,0.1022,0.1028,0.1031,0.1042,0.1055,0.1064,0.1086,0.1138,0.1137,0.1181,0.1174,0.1163,0.1255,0.1261,0.1235,0.123,0.1287,0.1368,0.1391,0.1108,0.1107,0.1106,0.1105,0,0,0.1009,0.1019,0.1019,0.1038,0.1044,0.1052,0.1085,0.1125,0.1174,0.1178,0.1256,0.1268,0.1285,0.1298,0.1295,0.135,0.1479,0.1334,0.1337,0.1432,0.1673,0.1717,0.1746,0.1477,0.1481,0.1484,0.1697,0,0.1022,0.1041,0.1047,0.1079,0.1093,0.1108,0.1149,0.1188,0.1222,0.1288,0.1317,0.1374,0.1329,0.1361,0.1413,0.1461,0.1539,0.1424,0.1591,0.1596,0.1641,0.1773,0.1772,0.1966,0.1719,0.1722,0.1725,0,0.1026,0.1042,0.1074,0.1126,0.1137,0.1162,0.124,0.1276,0.1364,0.14,0.1468,0.1491,0.1581,0.1523,0.1672,0.1604,0.1654,0.1682,0.1691,0.173,0.1683,0.1865,0.2016,0.198,0.176,0.1757,0.1755,0,0.1028,0.1064,0.1094,0.1105,0.1159,0.1196,0.1235,0.1315,0.1373,0.1483,0.1549,0.1641,0.1712,0.178,0.1835,0.1773,0.2002,0.1925,0.202,0.2023,0.2056,0.2055,0.2206,0.2057,0.2056,0.2056,0.2055,0,0.1033,0.1056,0.1098,0.1112,0.1174,0.1214,0.1297,0.1353,0.146,0.1551,0.1612,0.1713,0.1781,0.1899,0.1921,0.2071,0.2089,0.2082,0.2102,0.2075,0.2074,0.2066,0.2015,0.2064,0.2062,0.206,0.2059,0,0.1018,0.1043,0.108,0.1144,0.1169,0.1213,0.1316,0.1383,0.1488,0.1613,0.1658,0.1815,0.1984,0.2059,0.2202,0.2211,0.2281,0.2357,0.2326,0.2338,0.2363,0.2314,0.2367,0.2283,0.2512,0.2515,0.2517,0,0.1007,0.1022,0.1088,0.1116,0.1143,0.1214,0.1269,0.138,0.1458,0.1672,0.1742,0.1952,0.2098,0.2352,0.2432,0.2557,0.2417,0.2606,0.248,0.2425,0.2385,0.2204,0.2113,0.2552,0.2554,0.2556,0.2557,0,0.0989,0.1011,0.1043,0.1101,0.1154,0.1217,0.1308,0.1374,0.1521,0.1653,0.1855,0.1998,0.2283,0.2451,0.263,0.2677,0.2505,0.265,0.2611,0.2472,0.2269,0.2176,0.234,0.2575,0.2573,0.2572,0.2571,0.257,0.0968,0.0988,0.1033,0.1088,0.1144,0.1208,0.1259,0.1372,0.1507,0.1706,0.1875,0.21,0.2392,0.2665,0.2694,0.2787,0.2648,0.274,0.2704,0.2538,0.2405,0.2616,0.2846,0.2846,0.2846,0.2846,0.2845,0,0.0944,0.0975,0.102,0.1085,0.1129,0.1174,0.1276,0.1333,0.147,0.1708,0.1898,0.2253,0.248,0.2669,0.2897,0.2861,0.2648,0.2795,0.2541,0.2456,0.2709,0.2657,0.2833,0.2833,0.2833,0.2833,0.2833,0.2833,0.0934,0.0965,0.0995,0.1053,0.1098,0.1148,0.1195,0.129,0.1451,0.1722,0.1962,0.2168,0.2558,0.288,0.2967,0.2899,0.263,0.2568,0.2457,0.2659,0.2649,0.2638,0.2579,0.2736,0.2736,0.211,0.2106,0.2103]},{"header":{"parameterUnit":"m.s-1","parameterCategory":2,"la1":30.2991,"la2":30.254,"lo1":-89.0895,"lo2":-89.0444,"dy":0.0017,"dx":0.0017,"nx":28,"ny":28,"refTime":"2024-02-08T09:00:00:Z","depth":"0","parameterNumber":3,"parameterNumberName":"V-component_of_CURRENTS"},"data":[0,0,0,0,0,0,0,0,0,0,0,0,0,0,0,0,0,0,0,0,0,0,0,0,0,0,0,0,0,0,0,0,0,0,0,0,0,0,0,0,0,0,0,0,0,0,0,0,0,0,0,0,0,0,0,0,0,0,-0.0135,-0.0136,0,-0.0172,-0.0173,-0.0173,-0.0202,-0.0203,-0.0203,-0.0203,-0.0231,-0.0232,-0.0232,0,0,0,0,0,0,0,0,0,0,0,0,0,-0.0097,-0.0097,-0.0135,-0.0136,-0.0136,-0.0172,-0.0173,-0.0173,-0.0202,-0.0203,-0.0203,-0.0203,-0.0231,-0.0232,-0.0232,0,0,0,0,0,0,0,0,0,0,0,0,0,-0.0121,-0.0097,-0.0135,-0.0155,-0.0158,-0.0172,-0.0173,-0.0173,-0.0202,-0.0203,-0.0203,-0.0204,-0.0231,-0.0232,-0.0232,-0.0227,0,0,-0.0234,-0.0235,0,0,0,0,0,0,0,0,-0.012,-0.0122,-0.0152,-0.0154,-0.0156,-0.0184,-0.0169,-0.0191,-0.0202,-0.0185,-0.0203,-0.0204,-0.0214,-0.0216,-0.0222,-0.0228,-0.0229,-0.0234,-0.0235,-0.0235,-0.0235,0,0,0,0,0,0,0,-0.0118,-0.0121,-0.015,-0.0152,-0.0155,-0.0165,-0.0169,-0.0174,-0.0196,-0.0186,-0.0189,-0.0193,-0.0215,-0.0221,-0.0223,-0.023,-0.0234,-0.0235,-0.0235,-0.0236,-0.0238,-0.0237,0,0,0,0,0,0,-0.0113,-0.0119,-0.0148,-0.0151,-0.0139,-0.0165,-0.017,-0.0174,-0.0196,-0.02,-0.0193,-0.0195,-0.022,-0.0222,-0.0224,-0.0219,-0.0235,-0.0236,-0.0236,-0.0238,-0.0238,-0.0237,0,0,0,0,0,0,-0.0112,-0.0115,-0.0147,-0.0136,-0.0141,-0.0165,-0.017,-0.0175,-0.018,-0.0201,-0.0205,-0.0193,-0.022,-0.0223,-0.0229,-0.022,-0.0236,-0.0236,-0.0238,-0.0238,-0.0237,-0.0209,0,0,0,0,0,0,-0.0111,-0.0115,-0.0116,-0.0136,-0.0141,-0.0143,-0.017,-0.0175,-0.0182,-0.0184,-0.0203,-0.0206,-0.0221,-0.0228,-0.0229,-0.0221,-0.0237,-0.0239,-0.0238,-0.0238,-0.021,-0.0207,-0.0205,0,0,0,0,0,-0.0109,-0.0104,-0.0116,-0.0119,-0.0142,-0.0143,-0.0145,-0.0165,-0.0181,-0.0173,-0.0196,-0.0206,-0.0225,-0.0228,-0.023,-0.0222,-0.0239,-0.0238,-0.0238,-0.0211,-0.0208,-0.0205,0,0,0,0,0,0,-0.0085,-0.0107,-0.012,-0.0122,-0.0128,-0.0147,-0.0144,-0.016,-0.0172,-0.0178,-0.0202,-0.0206,-0.021,-0.0218,-0.0221,-0.0221,-0.0233,-0.0233,-0.0212,-0.0209,-0.0207,-0.0189,-0.0238,0,0,0,0,0,-0.0081,-0.0084,-0.0102,-0.0101,-0.0102,-0.0123,-0.0128,-0.0141,-0.0155,-0.0161,-0.0178,-0.0195,-0.0208,-0.021,-0.0222,-0.0218,-0.023,-0.0214,-0.0211,-0.0209,-0.0196,-0.0213,-0.0211,-0.0235,-0.0235,-0.0235,0,0,-0.0073,-0.0084,-0.0087,-0.0097,-0.0104,-0.0098,-0.0126,-0.0127,-0.0125,-0.0161,-0.0163,-0.0187,-0.0206,-0.0208,-0.0209,-0.0213,-0.021,-0.0208,-0.0206,-0.0194,-0.0212,-0.021,-0.0207,-0.0234,-0.0234,-0.0234,0,0,-0.005,-0.0064,-0.0058,-0.0059,-0.0068,-0.0077,-0.0075,-0.0092,-0.0101,-0.0108,-0.0138,-0.0156,-0.0169,-0.0185,-0.0194,-0.0181,-0.02,-0.0184,-0.0152,-0.0168,-0.0167,-0.0165,-0.0186,-0.0186,-0.0178,-0.0178,-0.0178,0,-0.0038,-0.0033,-0.0053,-0.0043,-0.0039,-0.0064,-0.0048,-0.0059,-0.0078,-0.0081,-0.0101,-0.0135,-0.0158,-0.0162,-0.0163,-0.0175,-0.0187,-0.0163,-0.0165,-0.0164,-0.0162,-0.0184,-0.0185,-0.0176,-0.0177,-0.0177,-0.0177,0,-0.0012,-0.0005,0.0005,0.0006,0.0008,0.0021,0.0005,0.0005,-0.0015,-0.0032,-0.0046,-0.0085,-0.0102,-0.0116,-0.0137,-0.0137,-0.015,-0.0164,-0.0172,-0.0158,-0.0182,-0.0184,-0.0174,-0.0175,-0.0175,-0.0176,0,0,0.0015,0.0022,0.0025,0.0042,0.0037,0.0048,0.0052,0.0055,0.0067,0.003,0.0037,-0.0008,-0.0036,-0.0048,-0.0081,-0.0098,-0.0114,-0.0122,-0.0123,-0.0141,-0.0151,-0.0177,-0.0182,-0.0127,-0.0127,-0.0127,-0.0174,0,0.0048,0.0081,0.007,0.0109,0.0131,0.0115,0.013,0.0123,0.0108,0.0109,0.0057,0.0048,-0.0007,-0.0015,-0.0044,-0.0092,-0.0115,-0.01,-0.0163,-0.0165,-0.0188,-0.0183,-0.0178,-0.0221,-0.0176,-0.0176,-0.0177,0,0.0081,0.0102,0.014,0.0176,0.0184,0.0198,0.0224,0.0231,0.0217,0.0203,0.0171,0.0132,0.0093,0.0048,-0.0034,-0.0021,-0.0079,-0.0123,-0.0126,-0.0157,-0.0192,-0.0226,-0.0226,-0.0384,-0.0179,-0.0179,-0.0179,0,0.0121,0.0156,0.0192,0.0201,0.0229,0.0246,0.026,0.0258,0.028,0.026,0.0272,0.0206,0.0185,0.0102,-0.0004,-0.0014,-0.009,-0.0118,-0.0198,-0.0201,-0.0212,-0.0216,-0.0368,-0.0169,-0.0169,-0.0169,-0.0169,0,0.0166,0.0201,0.0216,0.0239,0.0296,0.0291,0.0344,0.0346,0.0357,0.0391,0.0322,0.0336,0.0201,0.0137,0.0029,-0.0089,-0.007,-0.0188,-0.0212,-0.0204,-0.0206,-0.0356,-0.0439,-0.017,-0.017,-0.017,-0.0169,0,0.0208,0.0215,0.0267,0.0301,0.0316,0.0355,0.0406,0.0447,0.0444,0.0486,0.0485,0.0436,0.035,0.021,0.0077,-0.0037,-0.0242,-0.0197,-0.0183,-0.0204,-0.0434,-0.0514,-0.0678,-0.0745,-0.0296,-0.0297,-0.0297,0,0.0236,0.0261,0.0311,0.0348,0.0366,0.042,0.0467,0.0485,0.0527,0.0553,0.0583,0.052,0.0492,0.028,0.0064,-0.0132,-0.027,-0.0261,-0.0286,-0.0446,-0.0553,-0.0616,-0.0664,-0.0295,-0.0296,-0.0296,-0.0297,0,0.0293,0.0301,0.0342,0.0408,0.0462,0.0531,0.059,0.0636,0.0663,0.0702,0.0742,0.0728,0.0528,0.0336,0.0057,-0.0091,-0.0381,-0.0279,-0.0445,-0.0564,-0.0641,-0.0715,-0.0274,-0.0301,-0.0301,-0.03,-0.03,-0.03,0.0335,0.0371,0.0414,0.0479,0.0544,0.0623,0.0687,0.0754,0.0829,0.0905,0.0877,0.0906,0.0613,0.0236,-0.0008,-0.0437,-0.0435,-0.0557,-0.064,-0.0689,-0.076,-0.0333,-0.0388,-0.0388,-0.0388,-0.0388,-0.0388,0,0.0387,0.0421,0.0485,0.0561,0.0634,0.0658,0.0762,0.0832,0.0929,0.1025,0.1072,0.0977,0.059,0.0197,-0.0375,-0.0714,-0.0841,-0.0906,-0.1,-0.1031,-0.065,-0.0657,-0.0771,-0.0771,-0.0771,-0.0771,-0.0771,-0.0771,0.0418,0.0479,0.0504,0.0618,0.0676,0.0781,0.0843,0.0953,0.1048,0.1184,0.1246,0.1264,0.1004,-0.0098,-0.0875,-0.1073,-0.1298,-0.1369,-0.1483,-0.1235,-0.1209,-0.1184,-0.1212,-0.1441,-0.1442,-0.1817,-0.1821,-0.1824]}],[{"header":{"parameterUnit":"m.s-1","parameterCategory":2,"la1":30.2991,"la2":30.254,"lo1":-89.0895,"lo2":-89.0444,"dy":0.0017,"dx":0.0017,"nx":28,"ny":28,"refTime":"2024-02-08T09:00:00:Z","depth":"2","parameterNumber":2,"parameterNumberName":"U-component_of_CURRENTS"},"data":[0,0,0,0,0,0,0,0,0,0,0,0,0,0,0,0,0,0,0,0,0,0,0,0,0,0,0,0,0,0,0,0,0,0,0,0,0,0,0,0,0,0,0,0,0,0,0,0,0,0,0,0,0,0,0,0,0,0,0.1221,0.1222,0,0.1226,0.1226,0.1226,0.1233,0.1233,0.1233,0.1234,0.1229,0.1229,0.1229,0,0,0,0,0,0,0,0,0,0,0,0,0,0.1213,0.1213,0.1221,0.1222,0.1222,0.1226,0.1226,0.1226,0.1233,0.1233,0.1233,0.1234,0.1229,0.1229,0.1229,0,0,0,0,0,0,0,0,0,0,0,0,0,0.1215,0.1213,0.1221,0.1227,0.1228,0.1226,0.1226,0.1226,0.1233,0.1233,0.1233,0.1234,0.123,0.1229,0.1228,0.1216,0,0,0.1227,0.1226,0,0,0,0,0,0,0,0,0.1215,0.1215,0.1226,0.1227,0.1228,0.1231,0.1222,0.1223,0.1232,0.1229,0.1234,0.1234,0.123,0.1229,0.1227,0.1216,0.1216,0.1227,0.1226,0.1226,0.1226,0,0,0,0,0,0,0,0.1215,0.1215,0.1221,0.1226,0.1227,0.1228,0.1229,0.1222,0.1225,0.1229,0.123,0.1233,0.123,0.1227,0.1227,0.1216,0.1227,0.1226,0.1226,0.1226,0.1233,0.1234,0,0,0,0,0,0,0.1218,0.1215,0.1221,0.1222,0.1225,0.1228,0.1229,0.1228,0.1225,0.1226,0.1233,0.1234,0.1228,0.1227,0.1227,0.125,0.1226,0.1226,0.1225,0.1233,0.1233,0.1234,0,0,0,0,0,0,0.1218,0.1218,0.1221,0.122,0.1221,0.1228,0.1227,0.1228,0.1231,0.1229,0.1229,0.1236,0.1228,0.1227,0.1236,0.1248,0.1225,0.1225,0.1232,0.1233,0.1234,0.1272,0,0,0,0,0,0,0.1217,0.1218,0.1217,0.122,0.1221,0.1239,0.1227,0.1228,0.1233,0.1234,0.1232,0.1231,0.1229,0.1237,0.1235,0.1247,0.1224,0.1231,0.1233,0.1233,0.127,0.1274,0.1277,0,0,0,0,0,0.1217,0.1218,0.1217,0.1218,0.122,0.1241,0.1242,0.1246,0.1233,0.1247,0.1241,0.1232,0.1242,0.1237,0.1235,0.1247,0.1231,0.1232,0.1233,0.1268,0.1273,0.1277,0,0,0,0,0,0,0.1213,0.1219,0.1218,0.122,0.1238,0.1243,0.1248,0.1247,0.1251,0.1244,0.1237,0.1238,0.1252,0.1241,0.1235,0.1252,0.1235,0.1236,0.1262,0.1266,0.127,0.13,0.1224,0,0,0,0,0,0.1211,0.1214,0.1227,0.123,0.1237,0.124,0.1245,0.125,0.1253,0.1255,0.125,0.1245,0.1254,0.1254,0.1257,0.1261,0.1299,0.1267,0.1271,0.1274,0.1297,0.1373,0.1386,0.1238,0.1238,0.1238,0,0,0.1208,0.1213,0.1214,0.123,0.1235,0.1254,0.1244,0.1256,0.127,0.1252,0.126,0.1259,0.1259,0.1272,0.1277,0.1265,0.1336,0.1276,0.1279,0.13,0.1376,0.1391,0.1404,0.1239,0.1239,0.1239,0,0,0.1214,0.1211,0.122,0.1236,0.1253,0.1261,0.1267,0.1274,0.1278,0.1285,0.1282,0.1296,0.1286,0.1305,0.1308,0.1333,0.1356,0.1321,0.136,0.1433,0.1447,0.1459,0.1528,0.1547,0.1319,0.1319,0.1319,0,0.121,0.1225,0.1228,0.1246,0.1262,0.1266,0.1288,0.1294,0.1303,0.1316,0.1294,0.1319,0.1309,0.1354,0.136,0.1344,0.139,0.1343,0.1441,0.1454,0.1466,0.1534,0.1554,0.1321,0.132,0.132,0.132,0,0.1228,0.1241,0.1249,0.1273,0.1292,0.1312,0.1328,0.1338,0.1332,0.1346,0.1381,0.1377,0.1404,0.1391,0.1379,0.1456,0.1463,0.1442,0.1435,0.1484,0.1551,0.1572,0.1323,0.1323,0.1322,0.1322,0,0,0.1215,0.1254,0.1258,0.1279,0.131,0.1329,0.1352,0.139,0.1421,0.142,0.1473,0.1474,0.1486,0.1493,0.1487,0.1534,0.1643,0.1524,0.1527,0.1603,0.1817,0.1803,0.1824,0.1646,0.1649,0.1652,0.1831,0,0.1231,0.127,0.1288,0.133,0.1354,0.1372,0.1404,0.1436,0.1458,0.1508,0.1522,0.1568,0.1522,0.1546,0.1588,0.1635,0.1699,0.1598,0.175,0.1755,0.1746,0.1847,0.1703,0.1849,0.1851,0.1854,0.1856,0,0.1243,0.1272,0.1314,0.137,0.1384,0.141,0.1471,0.1502,0.157,0.1594,0.1645,0.1667,0.1741,0.1691,0.182,0.1761,0.1804,0.1829,0.1837,0.183,0.1779,0.1799,0.1885,0.189,0.1887,0.1885,0.1883,0,0.1237,0.129,0.1326,0.1343,0.1405,0.1428,0.1464,0.1526,0.1573,0.1665,0.172,0.1799,0.1859,0.1921,0.1956,0.1912,0.21,0.2045,0.208,0.2079,0.199,0.1976,0.2164,0.2164,0.2164,0.2163,0.2163,0,0.1247,0.1275,0.1326,0.1346,0.1397,0.1438,0.1505,0.1549,0.1643,0.1717,0.1774,0.1852,0.1923,0.2015,0.2032,0.213,0.2171,0.2131,0.2141,0.1997,0.1982,0.2032,0.2015,0.217,0.2169,0.2167,0.2166,0,0.123,0.1265,0.1307,0.1372,0.1393,0.1427,0.1519,0.1574,0.1666,0.177,0.1811,0.1939,0.2065,0.2128,0.225,0.2242,0.2318,0.2337,0.2162,0.2149,0.2232,0.2214,0.2425,0.2426,0.2427,0.2428,0.2429,0,0.1224,0.1243,0.131,0.1336,0.1363,0.1423,0.1468,0.1568,0.163,0.1807,0.1859,0.2028,0.2121,0.2306,0.2344,0.2431,0.2399,0.2326,0.2212,0.228,0.2268,0.2248,0.2229,0.2112,0.211,0.2108,0.2107,0,0.1208,0.1229,0.1265,0.132,0.1364,0.1416,0.1488,0.1541,0.1666,0.1765,0.1902,0.2001,0.2201,0.224,0.2361,0.2366,0.2298,0.23,0.2457,0.2056,0.1996,0.198,0.1969,0.2093,0.2095,0.2096,0.2097,0.2097,0.1186,0.1205,0.1252,0.1301,0.1348,0.1391,0.1419,0.1507,0.16,0.1733,0.1859,0.1972,0.2082,0.2207,0.2185,0.2178,0.2317,0.2211,0.2212,0.2214,0.2134,0.2078,0.2177,0.2179,0.2181,0.2182,0.2183,0,0.1158,0.1187,0.1232,0.1283,0.1311,0.1352,0.1419,0.144,0.1514,0.167,0.1784,0.176,0.1854,0.1936,0.1935,0.1978,0.1903,0.1882,0.1762,0.1782,0.1798,0.1688,0.1617,0.1615,0.1612,0.161,0,0,0.1145,0.1175,0.1205,0.1232,0.1261,0.1272,0.1292,0.1337,0.1429,0.1498,0.1571,0.1786,0.1914,0.1731,0.1748,0.1676,0.1693,0.1617,0.2088,0.1968,0.1979,0.203,0.1892,0,0,0,0,0]},{"header":{"parameterUnit":"m.s-1","parameterCategory":2,"la1":30.2991,"la2":30.254,"lo1":-89.0895,"lo2":-89.0444,"dy":0.0017,"dx":0.0017,"nx":28,"ny":28,"refTime":"2024-02-08T09:00:00:Z","depth":"2","parameterNumber":3,"parameterNumberName":"V-component_of_CURRENTS"},"data":[0,0,0,0,0,0,0,0,0,0,0,0,0,0,0,0,0,0,0,0,0,0,0,0,0,0,0,0,0,0,0,0,0,0,0,0,0,0,0,0,0,0,0,0,0,0,0,0,0,0,0,0,0,0,0,0,0,0,-0.0356,-0.0357,0,-0.0419,-0.0419,-0.042,-0.046,-0.0461,-0.0461,-0.0461,-0.0506,-0.0506,-0.0507,0,0,0,0,0,0,0,0,0,0,0,0,0,-0.0274,-0.0275,-0.0356,-0.0357,-0.0358,-0.0419,-0.0419,-0.042,-0.046,-0.0461,-0.0461,-0.0461,-0.0505,-0.0506,-0.0507,0,0,0,0,0,0,0,0,0,0,0,0,0,-0.0319,-0.0276,-0.0356,-0.0386,-0.039,-0.0418,-0.0419,-0.042,-0.046,-0.0461,-0.0461,-0.0462,-0.0505,-0.0506,-0.0508,-0.0504,0,0,-0.0511,-0.0512,0,0,0,0,0,0,0,0,-0.0317,-0.0322,-0.0381,-0.0384,-0.0388,-0.0433,-0.0407,-0.0448,-0.046,-0.0432,-0.0461,-0.0462,-0.048,-0.0484,-0.0492,-0.0506,-0.0508,-0.0511,-0.0512,-0.0513,-0.0513,0,0,0,0,0,0,0,-0.0313,-0.0319,-0.0379,-0.0382,-0.0386,-0.0398,-0.0405,-0.0415,-0.0451,-0.0434,-0.0438,-0.0447,-0.0482,-0.0491,-0.0494,-0.0509,-0.0511,-0.0513,-0.0513,-0.0514,-0.0534,-0.0534,0,0,0,0,0,0,-0.0308,-0.0317,-0.0377,-0.0381,-0.0354,-0.0399,-0.0406,-0.0417,-0.0451,-0.0457,-0.0446,-0.0448,-0.0489,-0.0492,-0.0495,-0.0488,-0.0513,-0.0514,-0.0515,-0.0534,-0.0534,-0.0534,0,0,0,0,0,0,-0.0306,-0.0313,-0.0375,-0.0351,-0.036,-0.04,-0.0411,-0.0418,-0.0432,-0.0461,-0.0466,-0.0454,-0.0489,-0.0494,-0.0515,-0.049,-0.0514,-0.0516,-0.0534,-0.0534,-0.0534,-0.0477,0,0,0,0,0,0,-0.0303,-0.0312,-0.0315,-0.0351,-0.0361,-0.0402,-0.0411,-0.0419,-0.0437,-0.0441,-0.0469,-0.0474,-0.049,-0.0513,-0.0516,-0.0492,-0.0517,-0.0535,-0.0534,-0.0534,-0.0479,-0.0474,-0.0471,0,0,0,0,0,-0.03,-0.0305,-0.0315,-0.0323,-0.0366,-0.0403,-0.041,-0.0438,-0.0437,-0.045,-0.0467,-0.0473,-0.0512,-0.0514,-0.0518,-0.0494,-0.0535,-0.0534,-0.0534,-0.0481,-0.0475,-0.0471,0,0,0,0,0,0,-0.0272,-0.0311,-0.0322,-0.0339,-0.0373,-0.0411,-0.042,-0.0436,-0.0458,-0.0453,-0.0477,-0.0484,-0.0494,-0.0506,-0.0508,-0.05,-0.0521,-0.0522,-0.0479,-0.0475,-0.0471,-0.0462,-0.0518,0,0,0,0,0,-0.0267,-0.0281,-0.0322,-0.0336,-0.0349,-0.0381,-0.0397,-0.0415,-0.044,-0.0451,-0.0466,-0.0479,-0.0493,-0.0495,-0.0514,-0.0509,-0.0528,-0.0495,-0.0491,-0.0487,-0.0484,-0.0501,-0.0497,-0.0532,-0.0532,-0.0532,0,0,-0.026,-0.0282,-0.0291,-0.0331,-0.0353,-0.0366,-0.0392,-0.0413,-0.0414,-0.0449,-0.0449,-0.0471,-0.0493,-0.0493,-0.0496,-0.0498,-0.0487,-0.0486,-0.0483,-0.0482,-0.05,-0.0496,-0.0493,-0.0532,-0.0532,-0.0532,0,0,-0.0248,-0.0272,-0.0277,-0.03,-0.0333,-0.0354,-0.0359,-0.0392,-0.0397,-0.0408,-0.0428,-0.0443,-0.0458,-0.0468,-0.0474,-0.046,-0.0473,-0.0455,-0.0415,-0.0431,-0.0428,-0.0425,-0.044,-0.044,-0.0442,-0.0442,-0.0442,0,-0.0233,-0.0247,-0.0285,-0.0292,-0.0302,-0.0345,-0.0345,-0.0359,-0.0391,-0.0383,-0.0403,-0.0422,-0.0445,-0.0438,-0.0434,-0.0448,-0.0459,-0.0428,-0.0424,-0.0422,-0.0421,-0.0437,-0.0437,-0.0439,-0.0439,-0.0439,-0.044,0,-0.0226,-0.0233,-0.0237,-0.0258,-0.0275,-0.0286,-0.0311,-0.0309,-0.0317,-0.0333,-0.0335,-0.0372,-0.0382,-0.0386,-0.0406,-0.0395,-0.0407,-0.0424,-0.0433,-0.0414,-0.0432,-0.0433,-0.0435,-0.0436,-0.0437,-0.0437,0,0,-0.0199,-0.0225,-0.0226,-0.0218,-0.0254,-0.0262,-0.0252,-0.0258,-0.0235,-0.0269,-0.0248,-0.0282,-0.0304,-0.0314,-0.0337,-0.0348,-0.0352,-0.0372,-0.0375,-0.038,-0.0381,-0.0396,-0.0399,-0.0363,-0.0363,-0.0363,-0.0396,0,-0.0179,-0.0173,-0.0196,-0.0183,-0.0179,-0.0199,-0.0187,-0.0192,-0.0197,-0.0189,-0.0224,-0.0229,-0.0275,-0.0272,-0.0294,-0.0339,-0.0353,-0.0342,-0.0405,-0.0407,-0.0417,-0.04,-0.0375,-0.0403,-0.0397,-0.0398,-0.0398,0,-0.0162,-0.0158,-0.0142,-0.0128,-0.0127,-0.0122,-0.0092,-0.0091,-0.0093,-0.0093,-0.0108,-0.0142,-0.0167,-0.0212,-0.0278,-0.0265,-0.0319,-0.0359,-0.0361,-0.0396,-0.0424,-0.0424,-0.0406,-0.04,-0.04,-0.04,-0.04,0,-0.0121,-0.0115,-0.0095,-0.0096,-0.0094,-0.0068,-0.0064,-0.0056,-0.003,-0.0035,-0.0012,-0.0067,-0.0078,-0.0156,-0.0248,-0.0256,-0.0325,-0.0349,-0.0415,-0.0417,-0.042,-0.0422,-0.0399,-0.0399,-0.0399,-0.0399,-0.0399,0,-0.0092,-0.0071,-0.0068,-0.0057,-0.001,-0.0027,0.0028,0.0033,0.0049,0.0085,0.0035,0.0056,-0.0063,-0.0117,-0.0218,-0.0318,-0.0306,-0.0406,-0.0424,-0.04,-0.0399,-0.042,-0.0422,-0.04,-0.04,-0.04,-0.0399,0,-0.0053,-0.0058,-0.0024,-0.0005,0.0008,0.0042,0.0088,0.0131,0.0137,0.0187,0.0191,0.0153,0.0084,-0.0039,-0.0163,-0.0264,-0.0369,-0.041,-0.0374,-0.0388,-0.0457,-0.0456,-0.048,-0.048,-0.0481,-0.0481,-0.0482,0,-0.0034,-0.0018,0.002,0.0053,0.0065,0.0114,0.0156,0.0172,0.0217,0.0251,0.0279,0.0236,0.022,0.003,-0.016,-0.0332,-0.0363,-0.0428,-0.0448,-0.0448,-0.0464,-0.0462,-0.046,-0.0429,-0.0429,-0.0429,-0.0429,0,0.001,0.002,0.0048,0.0112,0.0163,0.0225,0.0279,0.0326,0.0351,0.0399,0.0437,0.0429,0.0261,0.0096,-0.0145,-0.0271,-0.0401,-0.0433,-0.0436,-0.0414,-0.0404,-0.0419,-0.0417,-0.0429,-0.0429,-0.0429,-0.0429,-0.0429,0.0049,0.0082,0.012,0.0183,0.0246,0.0324,0.0383,0.0447,0.0521,0.0599,0.0562,0.0575,0.037,0.0088,-0.0147,-0.0394,-0.039,-0.0469,-0.0468,-0.0467,-0.0456,-0.0448,-0.0479,-0.048,-0.048,-0.048,-0.048,0,0.0101,0.0136,0.0193,0.0268,0.0342,0.0366,0.0464,0.0529,0.0627,0.0699,0.0743,0.0589,0.0394,0.0155,-0.0206,-0.0428,-0.0448,-0.0497,-0.0468,-0.0467,-0.0466,-0.0454,-0.0478,-0.0478,-0.0479,-0.0479,0,0,0.0133,0.0192,0.0216,0.0338,0.0396,0.0503,0.0564,0.0663,0.0739,0.0826,0.0849,0.0827,0.0513,0.0263,-0.005,-0.026,-0.0312,-0.0305,-0.0284,-0.0212,-0.0208,-0.0428,-0.0406,0,0,0,0,0]}],[{"header":{"parameterUnit":"m.s-1","parameterCategory":2,"la1":30.2991,"la2":30.254,"lo1":-89.0895,"lo2":-89.0444,"dy":0.0017,"dx":0.0017,"nx":28,"ny":28,"refTime":"2024-02-08T09:00:00:Z","depth":"4","parameterNumber":2,"parameterNumberName":"U-component_of_CURRENTS"},"data":[0,0,0,0,0,0,0,0,0,0,0,0,0,0,0,0,0,0,0,0,0,0,0,0,0,0,0,0,0,0,0,0,0,0,0,0,0,0,0,0,0,0,0,0,0,0,0,0,0,0,0,0,0,0,0,0,0,0,0.0947,0.0948,0,0.099,0.0991,0.0991,0.1015,0.1016,0.1016,0.1016,0.106,0.1061,0.1061,0,0,0,0,0,0,0,0,0,0,0,0,0,0.087,0.0871,0.0947,0.0948,0.0948,0.099,0.0991,0.0991,0.1015,0.1016,0.1016,0.1016,0.1059,0.106,0.1062,0,0,0,0,0,0,0,0,0,0,0,0,0,0.0906,0.0872,0.0947,0.0967,0.0969,0.099,0.0991,0.0991,0.1015,0.1016,0.1016,0.1016,0.1059,0.106,0.1062,0.1063,0,0,0.1066,0.1067,0,0,0,0,0,0,0,0,0.0904,0.0908,0.0963,0.0966,0.0968,0.0999,0.098,0.1016,0.1015,0.0996,0.1016,0.1017,0.1041,0.1043,0.1048,0.1065,0.1066,0.1066,0.1067,0.1067,0.1068,0,0,0,0,0,0,0,0.0901,0.0906,0.0962,0.0964,0.0967,0.0969,0.0974,0.0986,0.1014,0.0997,0.1,0.1008,0.1042,0.1047,0.1049,0.1067,0.1066,0.1067,0.1068,0.1069,0.1144,0.1146,0,0,0,0,0,0,0.09,0.0904,0.0961,0.0964,0.0938,0.097,0.0976,0.0987,0.1014,0.1019,0.1007,0.1009,0.1044,0.1048,0.1051,0.1111,0.1067,0.1069,0.107,0.1143,0.1145,0.1146,0,0,0,0,0,0,0.0899,0.0905,0.0959,0.0936,0.0943,0.0971,0.0984,0.0988,0.1015,0.1022,0.1026,0.1032,0.1044,0.1049,0.1082,0.1111,0.1069,0.1071,0.1142,0.1144,0.1145,0.1194,0,0,0,0,0,0,0.0896,0.0904,0.0918,0.0936,0.0945,0.0986,0.0984,0.0989,0.1019,0.1022,0.1044,0.1047,0.1045,0.108,0.1083,0.1112,0.1072,0.114,0.1143,0.1145,0.1191,0.1198,0.1203,0,0,0,0,0,0.0893,0.091,0.0919,0.0926,0.0961,0.0987,0.0992,0.1011,0.102,0.1036,0.1053,0.1048,0.1096,0.1082,0.1085,0.1115,0.1139,0.1142,0.1145,0.1189,0.1196,0.1203,0,0,0,0,0,0,0.0885,0.0914,0.0925,0.095,0.0975,0.0993,0.1012,0.1025,0.105,0.1057,0.1062,0.1067,0.1106,0.1104,0.1088,0.1144,0.1117,0.1121,0.115,0.1157,0.1163,0.116,0.1073,0,0,0,0,0,0.089,0.0912,0.0937,0.0961,0.0975,0.0998,0.1014,0.1027,0.1049,0.1062,0.1079,0.1097,0.1116,0.1132,0.1144,0.1176,0.118,0.1198,0.1203,0.1208,0.1209,0.1236,0.1244,0.1155,0.1155,0.1155,0,0,0.0893,0.0914,0.0926,0.0961,0.0982,0.1007,0.1009,0.1041,0.1066,0.1062,0.1107,0.1119,0.1128,0.1163,0.1181,0.1169,0.1241,0.1212,0.1216,0.1213,0.124,0.1248,0.1256,0.1156,0.1156,0.1156,0,0,0.0908,0.0932,0.0954,0.0977,0.1013,0.1027,0.1042,0.1074,0.1095,0.1133,0.1138,0.1167,0.12,0.1211,0.122,0.1266,0.1269,0.1277,0.1309,0.1336,0.1343,0.135,0.1385,0.1395,0.1283,0.1283,0.1283,0,0.0911,0.0943,0.0964,0.0992,0.1014,0.104,0.1067,0.1092,0.1131,0.1152,0.1156,0.1211,0.122,0.1259,0.1278,0.128,0.1299,0.1281,0.1344,0.135,0.1356,0.139,0.14,0.1286,0.1285,0.1285,0.1285,0,0.0937,0.0968,0.0986,0.1028,0.1054,0.1084,0.1117,0.1149,0.1178,0.1201,0.1252,0.1267,0.1299,0.1311,0.1311,0.1361,0.1365,0.1346,0.1324,0.1368,0.1402,0.1411,0.1289,0.1288,0.1288,0.1287,0,0,0.0926,0.0991,0.0999,0.1025,0.1077,0.1099,0.1145,0.1191,0.1225,0.1266,0.131,0.1347,0.1361,0.1371,0.1379,0.1404,0.1469,0.14,0.14,0.1434,0.1546,0.1488,0.1492,0.1466,0.1468,0.1469,0.1559,0,0.0941,0.0993,0.1023,0.1076,0.1105,0.1143,0.1183,0.1227,0.1267,0.1315,0.1343,0.1387,0.1383,0.1407,0.1433,0.146,0.1493,0.1447,0.1499,0.1501,0.1442,0.15,0.1474,0.1566,0.1568,0.1569,0.157,0,0.0953,0.0989,0.1041,0.1103,0.112,0.1156,0.1222,0.1261,0.1326,0.1358,0.1405,0.1429,0.1486,0.1466,0.1541,0.1517,0.1539,0.1552,0.1556,0.1486,0.1459,0.1509,0.1587,0.1585,0.1584,0.1583,0.1582,0,0.093,0.0999,0.1042,0.1065,0.1137,0.1171,0.1212,0.1277,0.1321,0.1391,0.1433,0.1488,0.1535,0.1565,0.1613,0.1585,0.169,0.1648,0.1617,0.1614,0.1615,0.1607,0.1695,0.1695,0.1695,0.1694,0.1694,0,0.0925,0.0962,0.1039,0.1063,0.1114,0.1169,0.1227,0.1274,0.135,0.1402,0.1459,0.1509,0.1564,0.163,0.1644,0.1675,0.1722,0.1635,0.1634,0.1637,0.163,0.1623,0.1613,0.1698,0.1697,0.1696,0.1696,0,0.0891,0.0944,0.0996,0.1078,0.1106,0.1143,0.1234,0.1273,0.1355,0.1425,0.1456,0.1556,0.1641,0.1697,0.1762,0.1722,0.1747,0.1744,0.1775,0.1772,0.1642,0.1634,0.1702,0.17,0.1699,0.1698,0.1698,0,0.0877,0.0902,0.0993,0.1024,0.1066,0.1129,0.1169,0.1261,0.1303,0.1445,0.1473,0.1597,0.1652,0.1705,0.1763,0.1802,0.1778,0.1774,0.167,0.1651,0.1644,0.1638,0.1631,0.1696,0.1696,0.1695,0.1695,0,0.0845,0.0885,0.0928,0.0991,0.1042,0.1088,0.1157,0.1184,0.129,0.1382,0.1457,0.1512,0.1613,0.1665,0.1724,0.1738,0.176,0.1762,0.1762,0.1664,0.1645,0.1637,0.1633,0.1691,0.1692,0.1692,0.1692,0,0.0819,0.0838,0.0901,0.0947,0.1006,0.1035,0.1075,0.1134,0.1191,0.1338,0.1366,0.1497,0.1597,0.1637,0.1689,0.1709,0.1666,0.1586,0.1595,0.16,0.1526,0.1483,0.1491,0,0,0,0,0,0.0787,0.0807,0.085,0.0899,0.0953,0.0989,0.1063,0.1106,0.1208,0.1229,0.1293,0.1378,0.1464,0.1537,0.1538,0.1654,0.1677,0.1648,0.1588,0.1671,0.1675,0.1597,0,0,0,0,0,0,0.0768,0.081,0.0831,0.0849,0.0872,0.0924,0.0968,0.1036,0.105,0.116,0.1216,0.1302,0.1409,0.1456,0.1515,0.1538,0.1473,0.1732,0.1728,0.1668,0.1672,0.1675,0.1597,0,0,0,0,0]},{"header":{"parameterUnit":"m.s-1","parameterCategory":2,"la1":30.2991,"la2":30.254,"lo1":-89.0895,"lo2":-89.0444,"dy":0.0017,"dx":0.0017,"nx":28,"ny":28,"refTime":"2024-02-08T09:00:00:Z","depth":"4","parameterNumber":3,"parameterNumberName":"V-component_of_CURRENTS"},"data":[0,0,0,0,0,0,0,0,0,0,0,0,0,0,0,0,0,0,0,0,0,0,0,0,0,0,0,0,0,0,0,0,0,0,0,0,0,0,0,0,0,0,0,0,0,0,0,0,0,0,0,0,0,0,0,0,0,0,-0.0177,-0.0178,0,-0.0236,-0.0237,-0.0237,-0.027,-0.027,-0.027,-0.027,-0.0336,-0.0338,-0.0339,0,0,0,0,0,0,0,0,0,0,0,0,0,-0.0106,-0.0107,-0.0177,-0.0178,-0.0179,-0.0236,-0.0237,-0.0238,-0.027,-0.027,-0.027,-0.027,-0.0336,-0.0337,-0.0339,0,0,0,0,0,0,0,0,0,0,0,0,0,-0.0148,-0.0108,-0.0177,-0.0202,-0.0205,-0.0236,-0.0237,-0.0238,-0.027,-0.027,-0.027,-0.027,-0.0335,-0.0337,-0.034,-0.0352,0,0,-0.0347,-0.0348,0,0,0,0,0,0,0,0,-0.0146,-0.0151,-0.0198,-0.02,-0.0203,-0.0246,-0.0236,-0.0276,-0.027,-0.0245,-0.027,-0.027,-0.0306,-0.0311,-0.0322,-0.0355,-0.0358,-0.0348,-0.0349,-0.035,-0.0351,0,0,0,0,0,0,0,-0.0143,-0.0148,-0.0201,-0.0198,-0.0202,-0.0214,-0.022,-0.0244,-0.0274,-0.0247,-0.025,-0.0256,-0.0308,-0.0319,-0.0324,-0.0359,-0.0347,-0.035,-0.0351,-0.0352,-0.0411,-0.0411,0,0,0,0,0,0,-0.0135,-0.0146,-0.0199,-0.0202,-0.0174,-0.0216,-0.0222,-0.0232,-0.0274,-0.0281,-0.0256,-0.0258,-0.0315,-0.0321,-0.0326,-0.0346,-0.035,-0.0352,-0.0354,-0.0411,-0.0411,-0.0411,0,0,0,0,0,0,-0.0133,-0.0139,-0.0196,-0.0175,-0.0183,-0.0217,-0.0227,-0.0233,-0.0251,-0.0281,-0.0287,-0.0269,-0.0315,-0.0323,-0.0351,-0.0348,-0.0354,-0.0356,-0.0411,-0.0411,-0.0411,-0.0383,0,0,0,0,0,0,-0.0131,-0.0138,-0.0145,-0.0175,-0.0184,-0.0215,-0.0227,-0.0234,-0.0254,-0.0257,-0.0293,-0.0299,-0.0316,-0.0347,-0.0353,-0.0352,-0.0358,-0.0411,-0.0411,-0.0411,-0.0384,-0.0382,-0.0381,0,0,0,0,0,-0.0128,-0.0137,-0.0145,-0.0151,-0.0192,-0.0216,-0.0222,-0.0246,-0.0255,-0.0262,-0.0287,-0.0299,-0.0352,-0.0349,-0.0356,-0.0356,-0.0411,-0.0411,-0.0411,-0.0384,-0.0382,-0.0381,0,0,0,0,0,0,-0.0114,-0.0142,-0.0151,-0.017,-0.019,-0.0221,-0.0233,-0.0248,-0.0274,-0.0278,-0.0304,-0.0312,-0.0336,-0.0351,-0.0347,-0.0373,-0.0381,-0.0383,-0.0359,-0.0357,-0.0355,-0.0344,-0.036,0,0,0,0,0,-0.0112,-0.0125,-0.0152,-0.0167,-0.0177,-0.0205,-0.0219,-0.0234,-0.0259,-0.0271,-0.0295,-0.032,-0.0341,-0.0353,-0.0376,-0.0392,-0.0406,-0.0395,-0.0394,-0.0392,-0.0388,-0.0408,-0.0408,-0.0412,-0.0412,-0.0412,0,0,-0.011,-0.0128,-0.0136,-0.0165,-0.0183,-0.0194,-0.0214,-0.0235,-0.0243,-0.0274,-0.0295,-0.0319,-0.0346,-0.0364,-0.0374,-0.0376,-0.0398,-0.0392,-0.0391,-0.0388,-0.0409,-0.0408,-0.0408,-0.0412,-0.0412,-0.0412,0,0,-0.0111,-0.0129,-0.0138,-0.0152,-0.0178,-0.0192,-0.0197,-0.0227,-0.0241,-0.0264,-0.0286,-0.0307,-0.0343,-0.0357,-0.0369,-0.0373,-0.0392,-0.0381,-0.0361,-0.0381,-0.0381,-0.0381,-0.0395,-0.0397,-0.0376,-0.0376,-0.0376,0,-0.0107,-0.0122,-0.0144,-0.0153,-0.0161,-0.0189,-0.0193,-0.0211,-0.0246,-0.0254,-0.0267,-0.0314,-0.0338,-0.0353,-0.0354,-0.0369,-0.0383,-0.0365,-0.0378,-0.0378,-0.0379,-0.0394,-0.0396,-0.0375,-0.0375,-0.0375,-0.0375,0,-0.0111,-0.0121,-0.0128,-0.0144,-0.0154,-0.0166,-0.0185,-0.0198,-0.0216,-0.0234,-0.0259,-0.0291,-0.0316,-0.0326,-0.0343,-0.0354,-0.0365,-0.0376,-0.038,-0.0377,-0.0393,-0.0396,-0.0373,-0.0373,-0.0374,-0.0374,0,0,-0.0107,-0.0126,-0.0128,-0.0127,-0.0149,-0.0156,-0.0165,-0.0181,-0.0183,-0.0217,-0.0223,-0.0262,-0.028,-0.0295,-0.0317,-0.0332,-0.0349,-0.0353,-0.0354,-0.0363,-0.0391,-0.0369,-0.037,-0.0364,-0.0365,-0.0365,-0.04,0,-0.0104,-0.0109,-0.0121,-0.012,-0.0121,-0.0138,-0.014,-0.0156,-0.0174,-0.0186,-0.0218,-0.0237,-0.0267,-0.0277,-0.0298,-0.0335,-0.0355,-0.0338,-0.0397,-0.0399,-0.0376,-0.0372,-0.0366,-0.0402,-0.0403,-0.0403,-0.0404,0,-0.0104,-0.0106,-0.0104,-0.0099,-0.0101,-0.0102,-0.0103,-0.011,-0.0131,-0.0145,-0.017,-0.0198,-0.0226,-0.0252,-0.0312,-0.0301,-0.0345,-0.0374,-0.0377,-0.0367,-0.0382,-0.0409,-0.0409,-0.0408,-0.0408,-0.0408,-0.0407,0,-0.0087,-0.0091,-0.0085,-0.0087,-0.0089,-0.0086,-0.0087,-0.01,-0.0093,-0.012,-0.0116,-0.0164,-0.0178,-0.024,-0.0301,-0.0311,-0.0363,-0.0386,-0.0409,-0.0408,-0.043,-0.043,-0.0433,-0.0433,-0.0433,-0.0433,-0.0433,0,-0.0079,-0.0073,-0.0076,-0.0073,-0.0055,-0.0066,-0.0051,-0.0058,-0.0058,-0.0036,-0.0093,-0.008,-0.0176,-0.0215,-0.0285,-0.0344,-0.0354,-0.0402,-0.0414,-0.0418,-0.0416,-0.0432,-0.0431,-0.0435,-0.0434,-0.0434,-0.0434,0,-0.0064,-0.0069,-0.0058,-0.0054,-0.0048,-0.0037,-0.0016,-0.0001,-0.0009,0.0021,0.0018,-0.0019,-0.0068,-0.0158,-0.0251,-0.031,-0.0378,-0.04,-0.0386,-0.0397,-0.0419,-0.0417,-0.0436,-0.0435,-0.0435,-0.0434,-0.0434,0,-0.0056,-0.0052,-0.0039,-0.0022,-0.002,-0.0002,0.0018,0.0021,0.0047,0.0072,0.0096,0.0057,0.0022,-0.0077,-0.0194,-0.0328,-0.0352,-0.0397,-0.0423,-0.0408,-0.0419,-0.0417,-0.0415,-0.0433,-0.0433,-0.0433,-0.0433,0,-0.0039,-0.0039,-0.0025,0.0008,0.0031,0.0066,0.0097,0.0127,0.0147,0.014,0.0184,0.0127,0.0072,-0.0041,-0.0146,-0.0246,-0.0373,-0.0393,-0.0396,-0.0421,-0.0406,-0.0416,-0.0415,-0.0431,-0.0432,-0.0432,-0.0432,0,-0.0023,-0.0008,0.001,0.0044,0.008,0.0135,0.0144,0.019,0.0217,0.0245,0.0262,0.0196,0.0147,0.0003,-0.0088,-0.0188,-0.0229,-0.0275,-0.0284,-0.0288,-0.0241,-0.02,-0.0167,0,0,0,0,0,-0.0004,0.0019,0.005,0.0095,0.0133,0.0161,0.0204,0.0212,0.0236,0.0284,0.0279,0.0236,0.0113,0.0052,-0.0042,-0.0112,-0.027,-0.0229,-0.0333,-0.0423,-0.0425,-0.0394,0,0,0,0,0,0,0.0011,0.0039,0.0057,0.0133,0.0177,0.0231,0.0264,0.028,0.0304,0.0312,0.0252,0.0213,0.0086,0.0181,-0.0037,-0.0072,-0.0152,-0.0296,-0.0298,-0.0422,-0.0424,-0.0425,-0.0394,0,0,0,0,0]}]]